Location: Goettingen
(51.5300°N, 9.9433°E)
Time: 06:28:10
(UTC+01:00)

ISS - Visible Passes

Search period start: 22 November 2017 00:00
Search period end: 02 December 2017 00:00
Orbit: 402 x 407 km, 51.6° (Epoch: 22 November)

Date Brightness Start Highest point End Pass type
(mag) Time Alt. Az. Time Alt. Az. Time Alt. Az.
28 Nov -1.5 18:16:46 10° S 18:17:52 13° SSE 18:17:52 13° SSE visible
29 Nov -1.4 18:59:15 10° SW 19:00:26 19° SSW 19:00:26 19° SSW visible
30 Nov -2.4 18:07:18 10° SSW 18:10:04 25° SSE 18:10:16 25° SE visible
01 Dec -1.7 17:15:41 10° S 17:17:53 17° SE 17:20:03 10° E visible
01 Dec -2.3 18:50:38 10° WSW 18:52:42 34° SW 18:52:42 34° SW visible
